Location: Banff
(51.1667°N, 115.5667°W)
Time: 03:39:47
(UTC+00:00)

Explorer 7 - Pass Details

Date: 02 December 2020
Orbit: 484 x 678 km, 50.3° (Epoch: 16 January)

Event Time Altitude Azimuth Distance (km) Brightness Sun altitude
Exits shadow 14:33:49 - 268° (W) 2,067 9.2 -7.9°
Reaches altitude 10° 14:34:43 10° 259° (W) 1,820 9.0 -7.8°
Maximum altitude 14:37:12 16° 222° (SW) 1,454 8.8 -7.4°
Drops below altitude 10° 14:39:38 10° 184° (S) 1,749 9.7 -7.1°
Sets 14:42:27 0° 161° (SSE) 2,598 11.0 -6.7°
